Mustoe, VA (24468)

6:51 AM EDT on September 05, 2015 (GMT -0400)
KVAMONTE3 | | Change Station
CLOSE
Current Station
Personal Weather Station
Location: Monterey, VA
Elevation: 2924 ft
Nearby Weather Stations

Elev 2924 ft 38.41 °N, 79.58 °W | Updated 2 minutes ago

Fog
Fog
63.7 °F
Feels Like 63.7 °F
N
1.0
Wind Variable Wind from NNE
Gusts 1.0 mph

Today
High -- | Low -- °F
--% Chance of Precip.
Yesterday
High -- | Low -- °F
Precip. -- in
6:51 AM 7:42 PM
Waning Gibbous, 50% visible
Pressure 30.31 in
Visibility 0.2 miles
Clouds Overcast 200 ft
Dew Point 60 °F
Humidity 89%
Rainfall 0.00 in
Snow Depth Not available.
UV 0 out of 12
Pollen 9.30 out of 12
Air Quality Not available.
Flu Activity Not available.
METAR KHSP 051030Z AUTO 06003KT M1/4SM FG OVC002 18/18 A3031 RMK AO2 T01810181
Pressure 30.31 in
Visibility 0.2 miles
Clouds Overcast 200 ft
Dew Point 60 °F
Humidity 89%
Rainfall 0.00 in
Snow Depth Not available.
UV 0 out of 12
Pollen 9.30 out of 12
Air Quality Not available.
Flu Activity Not available.
METAR KHSP 051030Z AUTO 06003KT M1/4SM FG OVC002 18/18 A3031 RMK AO2 T01810181

10-Day Weather Forecast

×

Almanac

Astronomy

Sep. 05, 2015 Rise Set
Actual Time
Civil Twilight
Nautical Twilight
Astronomical Twilight
Moon
Length of Visible Light
Length of Day
Tomorrow will be .
, % of the Moon is Illuminated

Today's Extremes

State Highs State Lows

Community

WunderPhotos

Upload Photos

1,852,439 photos uploaded!

WunderBlogs® & News

Nearby

Air Quality

  Air Quality AQ Index Pollutant
Not available.

Snow Depth

Station Depth Elevation

Earthquake Activity

City Distance Mag. Time & Date
Minimum magnitude displayed is 2.5.

Coastal Water Temperatures

Place Temperature

Stations

Nearby Weather Stations

Station Location Temp. Windchill Dew Point Humidity Wind Precip. Elev Updated Type